CAPE
415 755 611 217 125 88 4 5 1 0 0 0 0 0 0 0 0 0 0 0 0 0 0 0 0 0 0 0 0 0 0 0 1
632 620 243 227 541 523 145 57 5 0 0 0 0 0 0 0 0 0 0 0 0 0 0 0 0 0 0 0 0 0 0 0 0
660 297 160 266 386 199 157 108 55 4 0 0 0 0 0 0 0 0 0 0 0 0 0 0 0 0 0 0 0 0 0 0 0
344 129 20 432 323 251 96 69 128 36 0 0 0 0 0 0 0 0 0 0 0 0 0 0 0 0 0 0 0 0 0 0 0
81 30 70 380 436 496 191 36 131 125 1 0 0 0 0 0 0 0 0 0 0 0 0 0 0 0 0 0 0 0 0 0 0
8 4 40 156 276 444 173 24 10 5 0 0 0 0 0 0 0 0 0 0 0 0 0 0 0 0 0 0 0 0 0 0 0
2 15 14 97 133 197 167 40 0 0 0 0 0 0 0 0 0 0 0 0 0 0 0 0 0 0 0 0 0 0 0 0 0
4 8 15 25 36 36 40 5 0 0 0 0 0 0 0 0 0 0 0 0 0 11 35 36 19 11 7 0 0 0 0 0 0
0 1 7 1 7 11 0 0 0 0 0 0 0 0 0 0 0 0 0 0 0 0 33 65 106 133 83 85 54 40 17 9 2
0 0 0 0 0 0 0 0 0 0 0 0 0 0 0 0 0 0 0 0 0 0 3 33 61 96 60 78 57 64 62 53 57
0 0 0 0 0 0 0 0 0 0 0 0 0 0 1 1 1 0 2 2 0 0 0 21 35 68 35 55 47 40 46 31 23
0 0 0 0 0 0 0 0 0 0 0 0 0 0 0 9 15 2 6 0 0 4 12 14 32 38 55 49 56 46 1 0 0
0 4 22 21 22 0 0 0 1 0 0 0 0 1 7 11 22 10 5 4 2 2 0 0 0 0 20 74 45 11 0 0 0
67 89 89 62 23 11 6 9 8 0 0 6 17 18 22 9 4 3 5 2 0 0 0 0 0 0 28 77 53 0 0 0 0
108 125 136 97 47 43 26 8 0 0 0 14 33 32 17 12 31 8 2 0 0 0 0 0 0 0 6 74 4 0 0 0 0
213 270 262 199 148 88 57 25 7 2 11 50 39 42 3 19 8 0 0 0 0 0 0 4 2 0 7 6 0 8 2 3 0
371 314 343 351 299 272 149 51 13 18 36 85 68 41 34 21 0 0 0 0 0 0 0 1 1 3 2 11 14 14 10 0 0
391 440 417 362 341 292 199 127 108 59 110 116 66 40 4 0 0 0 0 0 0 0 0 0 0 2 1 3 4 9 0 0 0
336 319 340 314 261 183 163 129 113 100 103 68 93 27 15 0 0 0 3 0 0 0 0 0 0 0 0 0 2 3 7 15 3
211 211 217 181 159 91 59 44 46 59 69 78 56 37 15 0 0 1 0 0 0 0 0 0 0 0 0 0 0 1 11 31 52
CIN
-50 -17 -34 -110 -115 -144 0 0 0 0 0 0 0 0 0 0 0 0 0 0 0 0 0 0 0 0 0 0 0 0 0 0 0
-19 -27 -104 -113 -28 -20 -107 -67 -7 0 0 0 0 0 0 0 0 0 0 0 0 0 0 0 0 0 0 0 0 0 0 0 0
-7 -68 -86 -105 -66 -102 -104 -129 -14 -16 0 0 0 0 0 0 0 0 0 0 0 0 0 0 0 0 0 0 0 0 0 0 0
-44 -109 -1 -51 -82 -98 -40 -7 -97 -25 0 0 0 0 0 0 0 0 0 0 0 0 0 0 0 0 0 0 0 0 0 0 0
-188 -11 -116 -47 -41 -35 -97 -26 -94 -39 -3 0 0 0 0 0 0 0 0 0 0 0 0 0 0 0 0 0 0 0 0 0 0
-4 0 -32 -133 -59 -31 -33 -55 -88 -40 0 0 0 0 0 0 0 0 0 0 0 0 0 0 0 0 0 0 0 0 0 0 0
0 -15 -24 -27 -70 -51 -105 -40 0 0 0 0 0 0 0 0 0 0 0 0 0 0 0 0 0 0 0 0 0 0 0 0 0
-2 -24 -23 -80 -78 -73 -72 -29 0 0 0 0 0 0 0 0 0 0 0 0 0 -3 -1 -1 -12 -17 -25 0 0 0 0 0 0
0 -1 -5 -8 -108 -106 0 0 0 0 0 0 0 0 0 0 0 0 0 0 0 0 -11 -2 -29 -33 -4 -6 -9 -13 -20 -23 -2
0 0 0 0 0 0 0 0 0 0 0 0 0 0 0 0 -1 0 0 0 0 0 -31 -20 -10 -22 -5 -10 -7 -8 -6 -5 -3
0 0 0 0 0 0 0 0 0 0 0 0 0 0 -1 -1 -1 0 -2 -1 0 0 0 -32 -22 -8 -8 -10 -9 -16 -16 -21 -29
0 0 0 0 0 0 0 0 0 0 0 0 0 0 0 -1 0 0 0 0 0 -64 -47 -30 -28 -30 -11 -5 -4 -14 -2 0 0
0 -22 -111 -110 -106 0 0 0 -16 0 0 0 0 -1 -3 -4 -2 0 -3 -1 0 -1 0 0 0 0 -24 -1 -2 -17 0 0 0
-85 -71 -79 -82 -119 -127 -116 -115 -107 0 0 -68 -23 -13 -24 -3 -3 -2 -4 -2 -1 0 0 0 0 0 -17 -16 0 0 0 0 0
-71 -53 -36 -47 -55 -71 -86 -58 0 0 0 -41 -15 -20 -16 -29 -19 -3 -2 0 0 0 0 0 0 0 -11 -16 0 0 0 0 0
-44 -17 -17 -8 -28 -52 -41 -74 -54 -49 -22 -7 -15 -2 -2 -6 -13 0 0 0 0 0 0 -16 -8 0 -1 0 0 0 0 -3 -1
-12 -14 -11 -9 -10 -9 -5 -35 -55 -70 -20 -18 -5 -4 -4 -1 0 0 0 0 0 0 0 0 -3 -4 -1 0 0 0 -2 0 0
-9 -4 -6 -11 -24 -18 -20 -19 -20 -15 -4 -8 -14 -1 0 0 0 0 0 0 0 0 0 0 0 0 0 0 0 0 0 0 0
-16 -16 -18 -20 -54 -33 -57 -45 -23 -29 -9 -3 -5 -3 -46 0 0 0 -101 0 0 0 0 0 0 0 0 0 0 0 0 -1 -22
-23 -45 -41 -46 -86 -135 -144 -126 -109 -63 -8 -2 -7 -2 -47 0 0 -7 -6 0 0 0 0 0 0 0 0 0 0 0 0 0 0
Wind_Speed
25 22 26 26 24 nan nan nan nan nan nan nan nan nan nan nan nan nan nan nan nan nan nan nan nan nan nan nan nan nan nan nan nan
28 27 27 26 24 20 21 nan nan nan nan nan nan nan nan nan nan nan nan nan nan nan nan nan nan nan nan nan nan nan nan nan nan
28 27 29 26 26 22 22 20 nan nan nan nan nan nan nan nan nan nan nan nan nan nan nan nan nan nan nan nan nan nan nan nan nan
27 27 nan 28 26 24 nan nan 17 nan nan nan nan nan nan nan nan nan nan nan nan nan nan nan nan nan nan nan nan nan nan nan nan
nan nan nan 27 24 24 21 nan 17 19 nan nan nan nan nan nan nan nan nan nan nan nan nan nan nan nan nan nan nan nan nan nan nan
nan nan nan 24 23 24 23 nan nan nan nan nan nan nan nan nan nan nan nan nan nan nan nan nan nan nan nan nan nan nan nan nan nan
nan nan nan nan 26 26 24 nan nan nan nan nan nan nan nan nan nan nan nan nan nan nan nan nan nan nan nan nan nan nan nan nan nan
nan nan nan nan nan nan nan nan nan nan nan nan nan nan nan nan nan nan nan nan nan nan nan nan nan nan nan nan nan nan nan nan nan
nan nan nan nan nan nan nan nan nan nan nan nan nan nan nan nan nan nan nan nan nan nan nan nan 22 22 nan nan nan nan nan nan nan
nan nan nan nan nan nan nan nan nan nan nan nan nan nan nan nan nan nan nan nan nan nan nan nan nan nan nan nan nan nan nan nan nan
nan nan nan nan nan nan nan nan nan nan nan nan nan nan nan nan nan nan nan nan nan nan nan nan nan nan nan nan nan nan nan nan nan
nan nan nan nan nan nan nan nan nan nan nan nan nan nan nan nan nan nan nan nan nan nan nan nan nan nan nan nan nan nan nan nan nan
nan nan nan nan nan nan nan nan nan nan nan nan nan nan nan nan nan nan nan nan nan nan nan nan nan nan nan nan nan nan nan nan nan
nan nan nan nan nan nan nan nan nan nan nan nan nan nan nan nan nan nan nan nan nan nan nan nan nan nan nan nan nan nan nan nan nan
45 42 40 nan nan nan nan nan nan nan nan nan nan nan nan nan nan nan nan nan nan nan nan nan nan nan nan nan nan nan nan nan nan
45 45 43 45 42 nan nan nan nan nan nan nan nan nan nan nan nan nan nan nan nan nan nan nan nan nan nan nan nan nan nan nan nan
49 48 52 50 49 50 45 nan nan nan nan nan nan nan nan nan nan nan nan nan nan nan nan nan nan nan nan nan nan nan nan nan nan
52 52 52 59 62 55 40 44 43 nan 37 34 nan nan nan nan nan nan nan nan nan nan nan nan nan nan nan nan nan nan nan nan nan
56 54 58 57 53 49 42 45 27 29 33 nan nan nan nan nan nan nan nan nan nan nan nan nan nan nan nan nan nan nan nan nan nan
47 47 47 41 47 nan nan nan nan nan nan nan nan nan nan nan nan nan nan nan nan nan nan nan nan nan nan nan nan nan nan nan nan
Wind_Direction
290 287 286 282 281 nan nan nan nan nan nan nan nan nan nan nan nan nan nan nan nan nan nan nan nan nan nan nan nan nan nan nan nan
278 279 278 279 281 288 292 nan nan nan nan nan nan nan nan nan nan nan nan nan nan nan nan nan nan nan nan nan nan nan nan nan nan
273 279 281 282 279 282 282 284 nan nan nan nan nan nan nan nan nan nan nan nan nan nan nan nan nan nan nan nan nan nan nan nan nan
269 274 nan 276 281 282 nan nan 280 nan nan nan nan nan nan nan nan nan nan nan nan nan nan nan nan nan nan nan nan nan nan nan nan
nan nan nan 274 277 278 272 nan 272 272 nan nan nan nan nan nan nan nan nan nan nan nan nan nan nan nan nan nan nan nan nan nan nan
nan nan nan 271 274 278 275 nan nan nan nan nan nan nan nan nan nan nan nan nan nan nan nan nan nan nan nan nan nan nan nan nan nan
nan nan nan nan 265 267 270 nan nan nan nan nan nan nan nan nan nan nan nan nan nan nan nan nan nan nan nan nan nan nan nan nan nan
nan nan nan nan nan nan nan nan nan nan nan nan nan nan nan nan nan nan nan nan nan nan nan nan nan nan nan nan nan nan nan nan nan
nan nan nan nan nan nan nan nan nan nan nan nan nan nan nan nan nan nan nan nan nan nan nan nan 316 323 nan nan nan nan nan nan nan
nan nan nan nan nan nan nan nan nan nan nan nan nan nan nan nan nan nan nan nan nan nan nan nan nan nan nan nan nan nan nan nan nan
nan nan nan nan nan nan nan nan nan nan nan nan nan nan nan nan nan nan nan nan nan nan nan nan nan nan nan nan nan nan nan nan nan
nan nan nan nan nan nan nan nan nan nan nan nan nan nan nan nan nan nan nan nan nan nan nan nan nan nan nan nan nan nan nan nan nan
nan nan nan nan nan nan nan nan nan nan nan nan nan nan nan nan nan nan nan nan nan nan nan nan nan nan nan nan nan nan nan nan nan
nan nan nan nan nan nan nan nan nan nan nan nan nan nan nan nan nan nan nan nan nan nan nan nan nan nan nan nan nan nan nan nan nan
250 251 254 nan nan nan nan nan nan nan nan nan nan nan nan nan nan nan nan nan nan nan nan nan nan nan nan nan nan nan nan nan nan
253 249 250 252 253 nan nan nan nan nan nan nan nan nan nan nan nan nan nan nan nan nan nan nan nan nan nan nan nan nan nan nan nan
250 253 252 247 240 239 252 nan nan nan nan nan nan nan nan nan nan nan nan nan nan nan nan nan nan nan nan nan nan nan nan nan nan
249 250 251 247 249 250 242 247 246 nan 251 261 nan nan nan nan nan nan nan nan nan nan nan nan nan nan nan nan nan nan nan nan nan
248 247 251 258 252 257 244 249 263 264 262 nan nan nan nan nan nan nan nan nan nan nan nan nan nan nan nan nan nan nan nan nan nan
246 251 258 265 258 nan nan nan nan nan nan nan nan nan nan nan nan nan nan nan nan nan nan nan nan nan nan nan nan nan nan nan nan